Weather History for LFRJ - June, 2013

Change the Weather History Date:

Thursday, June 13, 2013

  Actual Average (LFRB) Record (LFRB)
Temperature  
Mean Temperature 56 °F -  
Max Temperature 60 °F 64 °F 71 °F (2014)
Min Temperature 50 °F 52 °F 44 °F (2001)
Degree Days  
Heating Degree Days 10    
Growing Degree Days 6 (Base 50)    
Moisture  
Dew Point 49 °F    
Average Humidity 76    
Maximum Humidity 94    
Minimum Humidity 55    
Precipitation  
Precipitation 0.00 in - - ()
Sea Level Pressure  
Sea Level Pressure 30.05 in    
Wind  
Wind Speed 16 mph ()    
Max Wind Speed 23 mph    
Max Gust Speed 37 mph    
Visibility 6.2 miles    
Events      
Averages and records for this station are not official NWS values.
T = Trace of Precipitation, MM = Missing Value Source: Averaged Metar Reports

Daily Weather History Graph

Daily Weather History Graph

Search for Another Location

Airport or City:

Trip Planner

Search our weather history database for the weather conditions in past years. The results will help you decide how hot, cold, wet, or windy it might be!

Date:

Astronomy

Jun. 13, 2013 Rise Set
Actual Time 6:14 AM CEST 10:19 PM CEST
Civil Twilight 5:32 AM CEST 11:01 PM CEST
Nautical Twilight 4:33 AM CEST 12:00 AM CEST
Astronomical Twilight 2:44 AM CEST 1:52 AM CEST
Moon 10:55 AM CEST (6/13) 12:30 AM CEST (6/13)
Length of Visible Light 17h 29m
Length of Day
16h 05m
Waxing Crescent, 19% of the Moon is Illuminated
Jun 13
Waxing Crescent
Jun 16
First Quarter
Jun 23
Full
Jun 30
Last Quarter
Jul 8
New

Hourly Weather History & Observations

Time (CEST) Temp. Dew Point Humidity Pressure Visibility Wind Dir Wind Speed Gust Speed Precip Events Conditions
12:00 AM 57.2 °F 53.6 °F 88% 29.95 in 6.2 mi SW 19.6 mph - N/A   Overcast
12:30 AM 57.2 °F 51.8 °F 82% 29.95 in 6.2 mi SW 21.9 mph - N/A   Overcast
1:00 AM 55.4 °F 51.8 °F 88% 29.95 in 6.2 mi SW 20.7 mph - N/A   Overcast
1:30 AM 55.4 °F 51.8 °F 88% 29.95 in 6.2 mi SW 20.7 mph - N/A   Overcast
2:00 AM 55.4 °F 51.8 °F 88% 29.95 in 6.2 mi WSW 21.9 mph - N/A   Overcast
2:30 AM 55.4 °F 51.8 °F 88% 29.95 in 6.2 mi WSW 21.9 mph 35.7 mph N/A   Overcast
3:00 AM 55.4 °F 51.8 °F 88% 29.95 in 6.2 mi WSW 23.0 mph - N/A   Mostly Cloudy
3:30 AM 55.4 °F 50.0 °F 82% 29.95 in 6.2 mi WSW 19.6 mph - N/A   Overcast
4:00 AM 55.4 °F 50.0 °F 82% 29.95 in 6.2 mi WSW 20.7 mph - N/A   Overcast
4:30 AM 55.4 °F 48.2 °F 77% 29.95 in 6.2 mi WSW 21.9 mph 36.8 mph N/A   Overcast
5:00 AM 53.6 °F 50.0 °F 88% 29.95 in 6.2 mi WSW 19.6 mph - N/A   Mostly Cloudy
5:30 AM 53.6 °F 48.2 °F 82% 29.98 in 6.2 mi WSW 19.6 mph - N/A   Overcast
6:00 AM 53.6 °F 48.2 °F 82% 29.98 in 6.2 mi WSW 18.4 mph - N/A   Overcast
6:30 AM 53.6 °F 48.2 °F 82% 29.98 in 6.2 mi WSW 15.0 mph - N/A   Overcast
7:00 AM 53.6 °F 48.2 °F 82% 29.98 in 6.2 mi WSW 16.1 mph - N/A   Overcast
7:30 AM 53.6 °F 50.0 °F 88% 30.01 in 6.2 mi WSW 15.0 mph - N/A   Overcast
8:00 AM 53.6 °F 50.0 °F 88% 30.01 in 6.2 mi WSW 15.0 mph - N/A   Overcast
8:30 AM 53.6 °F 50.0 °F 88% 30.01 in 6.2 mi WSW 17.3 mph - N/A   Overcast
9:00 AM 53.6 °F 50.0 °F 88% 30.01 in 6.2 mi WSW 17.3 mph - N/A   Overcast
9:30 AM 55.4 °F 50.0 °F 82% 30.04 in 6.2 mi West 15.0 mph - N/A   Overcast
10:00 AM 55.4 °F 48.2 °F 77% 30.04 in 6.2 mi West 13.8 mph - N/A   Overcast
10:30 AM 53.6 °F 48.2 °F 82% 30.04 in 6.2 mi West 16.1 mph - N/A   Overcast
11:00 AM 55.4 °F 50.0 °F 82% 30.04 in 6.2 mi West 16.1 mph - N/A   Mostly Cloudy
11:30 AM 55.4 °F 48.2 °F 77% 30.04 in 6.2 mi West 18.4 mph - N/A   Mostly Cloudy
12:00 PM 57.2 °F 50.0 °F 77% 30.06 in 6.2 mi West 16.1 mph 28.8 mph N/A   Mostly Cloudy
12:30 PM 57.2 °F 48.2 °F 72% 30.06 in 6.2 mi West 17.3 mph - N/A   Mostly Cloudy
1:00 PM 57.2 °F 48.2 °F 72% 30.09 in 6.2 mi West 16.1 mph - N/A   Mostly Cloudy
1:30 PM 57.2 °F 48.2 °F 72% 30.09 in 6.2 mi West 17.3 mph - N/A   Mostly Cloudy
2:00 PM 59.0 °F 48.2 °F 67% 30.09 in 6.2 mi West 16.1 mph - N/A   Mostly Cloudy
2:30 PM 59.0 °F 50.0 °F 72% 30.09 in 6.2 mi West 16.1 mph - N/A   Mostly Cloudy
3:00 PM 59.0 °F 46.4 °F 63% 30.12 in 6.2 mi West 17.3 mph - N/A   Mostly Cloudy
3:30 PM 57.2 °F 46.4 °F 67% 30.12 in 6.2 mi West 17.3 mph - N/A   Mostly Cloudy
4:00 PM 59.0 °F 48.2 °F 67% 30.12 in 6.2 mi WNW 17.3 mph - N/A   Mostly Cloudy
4:30 PM 60.8 °F 48.2 °F 63% 30.12 in 6.2 mi West 16.1 mph - N/A   Mostly Cloudy
5:00 PM 60.8 °F 48.2 °F 63% 30.12 in 6.2 mi West 16.1 mph - N/A   Mostly Cloudy
5:30 PM 60.8 °F 46.4 °F 59% 30.12 in 6.2 mi WNW 15.0 mph - N/A   Mostly Cloudy
6:00 PM 60.8 °F 44.6 °F 55% 30.12 in 6.2 mi West 13.8 mph - N/A   Mostly Cloudy
6:30 PM 60.8 °F 46.4 °F 59% 30.12 in 6.2 mi West 13.8 mph - N/A   Scattered Clouds
7:00 PM 59.0 °F 44.6 °F 59% 30.15 in 6.2 mi West 13.8 mph - N/A   Mostly Cloudy
7:30 PM 59.0 °F 46.4 °F 63% 30.15 in 6.2 mi West 12.7 mph - N/A   Scattered Clouds
8:00 PM 59.0 °F 44.6 °F 59% 30.15 in 6.2 mi West 13.8 mph - N/A   Mostly Cloudy
8:30 PM 57.2 °F 44.6 °F 63% 30.15 in 6.2 mi West 13.8 mph - N/A   Scattered Clouds
9:00 PM 57.2 °F 46.4 °F 67% 30.15 in 6.2 mi West 11.5 mph - N/A   Scattered Clouds
9:30 PM 55.4 °F 46.4 °F 72% 30.15 in 6.2 mi West 11.5 mph - N/A   Unknown
10:00 PM 55.4 °F 46.4 °F 72% 30.15 in 6.2 mi WSW 6.9 mph - N/A   Partly Cloudy
10:30 PM 51.8 °F 46.4 °F 82% 30.18 in 6.2 mi SW 6.9 mph - N/A   Unknown
11:00 PM 51.8 °F 48.2 °F 88% 30.18 in 6.2 mi SW 6.9 mph - N/A   Partly Cloudy
11:30 PM 50.0 °F 48.2 °F 94% 30.18 in 6.2 mi SSW 6.9 mph - N/A   Unknown